Fort Worth, TX

10:23 PM CDT on July 23, 2017 (GMT -0500)
Fort Worth Meacham International

Weather History for KFTW - January, 2013

Change the Weather History Date:

Tuesday, January 29, 2013

  Actual Average Record
Temperature  
Mean Temperature 66 °F -  
Max Temperature 78 °F 55 °F 78 °F (2002)
Min Temperature 53 °F 34 °F 15 °F (1997)
Growing Degree Days 16 (Base 50)    
Moisture  
Dew Point 57 °F    
Average Humidity 76    
Maximum Humidity 100    
Minimum Humidity 36    
Precipitation  
Precipitation 0.30 in - - ()
Sea Level Pressure  
Sea Level Pressure 29.60 in    
Wind  
Wind Speed 18 mph (SW)    
Max Wind Speed 28 mph    
Max Gust Speed 40 mph    
Visibility 9 miles    
Events Rain , Thunderstorm    
Averages and records for this station are not official NWS values.
T = Trace of Precipitation, MM = Missing Value Source: NWS Daily Summary

Daily Weather History Graph

Daily Weather History Graph

Search for Another Location

Airport or City:

Trip Planner

Search our weather history database for the weather conditions in past years. The results will help you decide how hot, cold, wet, or windy it might be!

Date:

Astronomy

Jan. 29, 2013 Rise Set
Actual Time 7:26 AM CST 5:59 PM CST
Civil Twilight 7:00 AM CST 6:25 PM CST
Nautical Twilight 6:30 AM CST 6:55 PM CST
Astronomical Twilight 6:01 AM CST 7:24 PM CST
Moon 8:44 PM CST (1/29) 8:34 AM CST (1/29)
Length of Visible Light 11h 25m
Length of Day
10h 33m
Waning Gibbous, 93% of the Moon is Illuminated
Jan 29
Waning Gibbous
Feb 3
Last Quarter
Feb 10
New
Feb 17
First Quarter
Feb 25
Full

Hourly Weather History & Observations

Time (CST) Temp. Dew Point Humidity Pressure Visibility Wind Dir Wind Speed Gust Speed Precip Events Conditions
12:53 AM 70.0 °F 64.9 °F 84% 29.80 in 10.0 mi South 16.1 mph 25.3 mph N/A   Overcast
1:53 AM 69.1 °F 64.9 °F 87% 29.76 in 10.0 mi SSE 18.4 mph 25.3 mph N/A   Overcast
2:53 AM 69.1 °F 64.9 °F 87% 29.75 in 10.0 mi South 24.2 mph 32.2 mph N/A   Mostly Cloudy
3:53 AM 69.1 °F 64.9 °F 87% 29.72 in 10.0 mi SSE 16.1 mph 23.0 mph N/A   Overcast
4:53 AM 70.0 °F 64.9 °F 84% 29.70 in 10.0 mi South 19.6 mph 28.8 mph N/A   Overcast
5:53 AM 70.0 °F 64.9 °F 84% 29.69 in 10.0 mi South 18.4 mph 25.3 mph N/A   Overcast
6:53 AM 71.1 °F 64.9 °F 81% 29.67 in 10.0 mi South 15.0 mph 24.2 mph N/A   Overcast
7:53 AM 71.1 °F 64.9 °F 81% 29.66 in 10.0 mi South 18.4 mph 31.1 mph N/A   Overcast
8:53 AM 70.0 °F 64.9 °F 84% 29.65 in 10.0 mi South 18.4 mph 24.2 mph N/A   Overcast
9:27 AM 71.6 °F 64.4 °F 78% 29.67 in 10.0 mi SSW 15.0 mph 25.3 mph N/A   Overcast
9:53 AM 71.1 °F 64.9 °F 81% 29.63 in 10.0 mi South 21.9 mph 33.4 mph N/A   Overcast
10:53 AM 73.0 °F 64.9 °F 76% 29.59 in 10.0 mi South 19.6 mph 32.2 mph 0.00 in   Scattered Clouds
11:22 AM 71.6 °F 64.4 °F 78% 29.58 in 10.0 mi South 25.3 mph 35.7 mph N/A   Overcast
11:53 AM 73.9 °F 64.9 °F 73% 29.54 in 10.0 mi South 25.3 mph 32.2 mph N/A   Mostly Cloudy
12:02 PM 73.9 °F 64.9 °F 73% 29.54 in 10.0 mi South 25.3 mph 40.3 mph N/A   Mostly Cloudy
12:26 PM 75.2 °F 64.4 °F 69% 29.54 in 10.0 mi South 23.0 mph 36.8 mph N/A   Mostly Cloudy
12:53 PM 75.0 °F 64.9 °F 71% 29.49 in 10.0 mi South 27.6 mph 36.8 mph N/A   Mostly Cloudy
1:00 PM 75.2 °F 64.4 °F 69% 29.51 in 10.0 mi South 21.9 mph 36.8 mph N/A   Mostly Cloudy
1:53 PM 78.1 °F 64.0 °F 62% 29.44 in 10.0 mi South 25.3 mph 35.7 mph N/A   Partly Cloudy
2:46 PM 71.6 °F 51.8 °F 50% 29.48 in 10.0 mi West 24.2 mph 38.0 mph N/A Thunderstorm Scattered Clouds
2:53 PM 68.0 °F 52.0 °F 56% 29.47 in 10.0 mi WNW 18.4 mph 33.4 mph N/A Thunderstorm Mostly Cloudy
3:00 PM 62.6 °F 55.4 °F 77% 29.48 in 10.0 mi WNW 20.7 mph 33.4 mph 0.00 in Rain , Thunderstorm Light Rain
3:08 PM 60.8 °F 57.2 °F 88% 29.49 in 1.8 mi WNW 11.5 mph 27.6 mph 0.09 in Rain , Thunderstorm Heavy Thunderstorms and Rain
3:27 PM 57.2 °F 57.2 °F 100% 29.51 in 2.5 mi West 11.5 mph - 0.18 in Rain , Thunderstorm Heavy Thunderstorms and Rain
3:35 PM 57.2 °F 57.2 °F 100% 29.52 in 3.0 mi West 12.7 mph - 0.20 in Rain Rain
3:42 PM 57.2 °F 57.2 °F 100% 29.50 in 3.0 mi West 10.4 mph - 0.21 in Rain , Thunderstorm Thunderstorms and Rain
3:53 PM 57.9 °F 57.9 °F 100% 29.50 in 4.0 mi West 4.6 mph - 0.22 in Rain , Thunderstorm Light Thunderstorms and Rain
4:41 PM 57.2 °F 57.2 °F 100% 29.57 in 10.0 mi SSW 5.8 mph - 0.02 in   Overcast
4:53 PM 57.9 °F 57.9 °F 100% 29.55 in 10.0 mi West 3.5 mph - 0.02 in   Overcast
5:34 PM 57.2 °F 48.2 °F 72% 29.63 in 9.0 mi West 11.5 mph 29.9 mph 0.01 in Rain Light Rain
5:53 PM 57.0 °F 46.9 °F 69% 29.63 in 8.0 mi WNW 16.1 mph 24.2 mph 0.02 in Rain Light Rain
6:53 PM 53.1 °F 46.9 °F 80% 29.59 in 10.0 mi West 4.6 mph - 0.04 in   Overcast
7:53 PM 53.1 °F 48.0 °F 83% 29.60 in 10.0 mi West 5.8 mph - N/A   Mostly Cloudy
8:53 PM 55.9 °F 37.9 °F 51% 29.64 in 10.0 mi West 13.8 mph 19.6 mph N/A   Scattered Clouds
9:53 PM 57.0 °F 30.0 °F 36% 29.65 in 10.0 mi West 19.6 mph 26.5 mph N/A   Scattered Clouds
10:53 PM 55.0 °F 28.9 °F 37% 29.69 in 10.0 mi West 15.0 mph 31.1 mph N/A   Overcast
11:53 PM 53.1 °F 28.9 °F 40% 29.70 in 10.0 mi WSW 12.7 mph 20.7 mph N/A   Scattered Clouds